Home > Weather > Hameln > Past weeks

Flag for Germany Past Weather in Hameln, Lower Saxony, Germany — Yesterday and Last 2 Weeks

Now
55 °F

Passing clouds.


Feels Like: 53 °F
Forecast: 54 / 70 °F
Wind: 9 mph from Southwest

Location: Bueckeburg

Current Time: Jun 27, 2016 at 4:20:15 AM

Latest Report: Jun 27, 2016 at 3:20 AM


Visibility: N/A

Pressure: 30.04 "Hg

Humidity: 88%

Dew Point: 52 °F

Location of HamelnLocation

Past Weather in Hameln — Graph

°F

Hameln Temperature Yesterday

Maximum temperature yesterday: 68 °F (at 3:20 PM)
Minimum temperature yesterday: 57 °F (at 12:20 AM)
Average temperature yesterday: 61 °F

High & Low Weather Summary for the Past Weeks

 TemperatureHumidityPressure
High90 °F (Jun 23, 4:20 PM)100% (Jun 12, 10:20 PM)30.24 "Hg (Jun 12, 10:20 PM)
Low50 °F (Jun 20, 1:20 AM)41% (Jun 23, 5:20 PM)29.45 "Hg (Jun 14, 4:20 PM)
Average64 °F80%29.87 "Hg
* Reported Jun 12 2:20 AM — Jun 27 2:20 AM, Hameln, Weather by CustomWeather, © 2016

Note: Actual official high and low records may vary slightly from our data, if they occured in-between our weather recording intervals... More about our weather records

Advertising

Hameln Weather History for the Previous 24 Hours

Scroll right to see more
 ConditionsComfort  
Time TempWeatherWind HumidityBarometerVisibility
2:20 AM
Mon, Jun 27
55 °FPassing clouds.8 mph88%30.04 "HgN/A
1:20 AM54 °FPassing clouds.7 mph94%30.04 "HgN/A
12:20 AM54 °FPassing clouds.6 mph94%30.04 "HgN/A
11:20 PM
Sun, Jun 26
57 °FPassing clouds.6 mph88%30.04 "HgN/A
10:20 PM57 °FPassing clouds.7 mph88%30.04 "HgN/A
9:20 PM59 °FPassing clouds.7 mph82%30.01 "HgN/A
8:20 PM61 °FPassing clouds.6 mph83%30.01 "HgN/A
7:20 PM61 °FSprinkles. Broken clouds.7 mph88%30.01 "HgN/A
6:20 PM66 °FRain showers. Broken clouds.7 mph64%30.01 "HgN/A
5:20 PM68 °FMild.10 mph53%30.01 "HgN/A
4:20 PM68 °FMild.10 mph49%30.01 "HgN/A
3:20 PM68 °FMild.14 mph53%30.01 "HgN/A
2:20 PM66 °FMild.14 mph56%30.01 "HgN/A
1:20 PM66 °FMild.15 mph52%30.01 "HgN/A
12:20 PM66 °FMild.13 mph56%30.01 "HgN/A
11:20 AM64 °FMild.14 mph60%30.01 "HgN/A
10:20 AM63 °FMild.13 mph68%30.01 "HgN/A
9:20 AM61 °FCool.10 mph77%30.01 "HgN/A
8:20 AM59 °FCool.9 mph82%30.01 "HgN/A
7:20 AM57 °FCool.12 mph88%30.01 "HgN/A
6:20 AM57 °FCool.10 mph94%30.01 "HgN/A
5:20 AM57 °FFog.10 mph94%29.98 "Hg3 mi
4:20 AM57 °FPassing clouds.6 mph94%29.98 "Hg4 mi
Weather by CustomWeather, © 2016

See weather overviewHow to use our weather pages